Regional Weather Roundup
Issued by NWS Green Bay, WI

Home | Current Version | Previous Version | Graphics & Text | Print | Product List | Glossary Off
Versions: 1 2 3 4 5 6 7 8 9 10 11 12 13 14 15 16 17 18 19 20 21 22 23 24 25 26 27 28 29 30 31 32 33 34 35 36 37 38 39 40 41 42 43 44 45 46 47 48 49 50

000
ASUS43 KGRB 221959
RWRGRB

NORTH-CENTRAL AND NORTHEAST WISCONSIN REGIONAL WEATHER ROUNDUP
NATIONAL WEATHER SERVICE GREEN BAY WI
300 PM CDT TUE JUL 22 2014

WIZ005-009-010>012-018-019-222100-
NORTH CENTRAL WISCONSIN

CITY           SKY/WX    TMP DP  RH WIND       PRES   REMARKS
IRONWOOD       CLOUDY    70  63  78 NW7       29.96R
MANITOWISH WTR NOT AVBL
ARBOR VITAE    NOT AVBL
EAGLE RIVER    NOT AVBL
LAND O LAKES   NOT AVBL
RHINELANDER    CLOUDY    76  64  66 NW10G18   29.98R
PHILLIPS       CLOUDY    74  64  72 NW10G16   29.99R
ANTIGO         NOT AVBL
TOMAHAWK       PTSUNNY   78  64  61 NW12G22   29.97R
MERRILL        NOT AVBL
$$

WIZ013-073-222100-
NORTHEAST WISCONSIN

CITY           SKY/WX    TMP DP  RH WIND       PRES   REMARKS
IRON MOUNTAIN  CLOUDY    82  63  52 NW15      29.89R
MARINETTE      MOSUNNY   90  68  48 NW7       29.82R HX  93
$$

WIZ017-030-035>037-045-222100-
CENTRAL WISCONSIN

CITY           SKY/WX    TMP DP  RH WIND       PRES   REMARKS
MEDFORD        NOT AVBL
WAUSAU         SUNNY     85  65  51 W17       29.92R
MOSINEE        SUNNY     84  66  54 W15G22    29.95R
MARSHFIELD     SUNNY     84  66  54 NW15      29.96R
WISC RAPIDS    SUNNY     88  67  49 NW15      29.95R HX  91
STEVENS POINT  NOT AVBL
WAUPACA        PTSUNNY   93  69  44 NW12G18   29.89R HX  97
SHAWANO        SUNNY     91  63  39 W14G22    29.87R HX  92
CLINTONVILLE   MOSUNNY   90  63  40 NW15G24   29.87R HX  90
$$

WIZ038-039-048-051-222100-
FOX VALLEY

CITY           SKY/WX    TMP DP  RH WIND       PRES   REMARKS
NWS GREEN BAY  MOSUNNY   90  74  59 W9        29.85F HX  99
APPLETON       PTSUNNY   88  72  58 SW12      29.88F HX  94
OSHKOSH        MOSUNNY   89  75  63 VRB7      29.88S HX  99
FOND DU LAC    MOSUNNY   88  74  63 W12       29.89S HX  96
$$

WIZ022-050-052-222100-
EAST CENTRAL WISCONSIN

CITY           SKY/WX    TMP DP  RH WIND       PRES   REMARKS
STURGEON BAY   MOSUNNY   88  72  58 SW17      29.85S HX  94
MANITOWOC      NOT AVBL
SHEBOYGAN      PTSUNNY   86  75  69 W10       29.89R HX  95
$$

LMZ563-521-522-541>543-222100-
LAKESHORE

STATION/POSITION TIME  TEMP    WIND        PRES    VSBY  WAVE
                       AIR SEA DIR/SP/G                  HT/PER
                 (UTC) (F)     (DEG/KT/KT) (MB)    (MI)  (FT/S)
SHEBOYGAN LKSHOR 1900   72     170/ 23/ 24 1010.7F
KEWAUNEE LKSHORE 1900          160/  8/ 13 1011.7R
NORTHPORT PIER   1900   71     140/ 10/ 13 1009.5R
N MID LAKE BUOY  1900   62 57  210/ 23/ 27 1008.6S         6/ 6
STURGEON BAY CG  1900   57 48  210/  9     1011.1   3 1/2  2
CHAMBERS ISLAND  1900   83     190/  5/ 13 1009.5R
MENOMINEE LKSHOR 1900   88     240/ 12/ 16 1010.6R
$$


USA.gov is the U.S. government's official web portal to all federal, state and local government web resources and services.